Tracking 18852 objects as of 23-Nov-2017
HD Live streaming from Space Station
objects crossing your sky now

FENGYUN 1C DEB

Track FENGYUN 1C DEB now!
10-day predictions


NORAD ID: 30927
Int'l Code: 1999-025AZR
Perigee: 826.6 km
Apogee: 997.8 km
Inclination: 99.3 °
Period: 103.1 minutes
Semi major axis: 7283 km
RCS: 0.0086 m2 (small)
Launch date: May 10, 1999
Source: People's Republic of China (PRC)
Launch site: Taiyaun Space Center, China (TSC)

Note: This is SATELLITE DEBRIS
aabbcc
Your satellite tracking list
Your tracking list is empty




NASA's NSSDC Master Catalog

Two Line Element Set (TLE):
1 30927U 99025AZR 17326.43595623 +.00000706 +00000-0 +51027-3 0  9993
2 30927 099.2540 308.2455 0117537 157.4900 356.2888 13.96759406545047
Source of the keplerian elements: AFSPC